This demonstration page uses our WeatherBlox Daily Observations layout. Learn more.

39.92423, -83.80882

Hourly Observations for December 8, 2018

Temp ( °F °C ) Dew Point ( °F °C ) Humidity (%) Winds ( mph kmh ) Pressure ( in mb ) Visibility ( mi km ) Precip ( " mm )
12:56 am 00:56 Clear 21 -6.1 18 -7.8 88 88 WNW 8 13 30.53 1034 10 16.0934 0 0
1:56 am 01:56 Clear 21 -6.1 18 -7.8 88 88 WNW 7 11 30.52 1033 10 16.0934 0 0
2:56 am 02:56 Clear 19 -7.2 17 -8.3 92 92 W 6 9 30.54 1034 8 12.87472 0 0
3:22 am 03:22 Mostly Cloudy 19 -7 18 -8 93 93 W 5 7 30.59 1036 8 12.87472 0 0
3:56 am 03:56 Cloudy 21 -6.1 19 -7.2 92 92 NNW 7 11 30.54 1034 8 12.87472 0 0
4:48 am 04:48 Partly Cloudy 19 -7 16 -9 86 86 N 15 24 30.59 1036 10 16.0934 0 0
4:56 am 04:56 Mostly Clear 20 -6.7 15 -9.4 81 81 N 12 19 30.55 1035 10 16.0934 0 0
5:56 am 05:56 Clear 19 -7.2 13 -10.6 77 77 N 7 11 30.57 1035 10 16.0934 0 0
6:56 am 06:56 Clear 18 -7.8 12 -11.1 77 77 NNE 5 7 30.6 1036 10 16.0934 0 0
7:56 am 07:56 Sunny 18 -7.8 12 -11.1 77 77 ENE 3 6 30.64 1038 10 16.0934 0 0
8:56 am 08:56 Sunny 20 -6.7 14 -10 78 78 ENE 6 9 30.66 1038 10 16.0934 0 0
9:56 am 09:56 Sunny 21 -6.1 14 -10 74 74 ENE 9 15 30.66 1038 10 16.0934 0 0
10:56 am 10:56 Sunny 23 -5 16 -8.9 74 74 ENE 10 17 30.65 1038 10 16.0934 0 0
11:56 am 11:56 Sunny 24 -4.4 15 -9.4 68 68 NE 12 19 30.61 1037 10 16.0934 0 0
12:56 pm 12:56 Sunny 25 -3.9 16 -8.9 69 69 NE 12 19 30.59 1036 10 16.0934 0 0
1:56 pm 13:56 Sunny 26 -3.3 16 -8.9 66 66 E 8 13 30.6 1036 10 16.0934 0 0
2:56 pm 14:56 Sunny 25 -3.9 16 -8.9 69 69 ENE 9 15 30.57 1035 10 16.0934 0 0
3:56 pm 15:56 Sunny 25 -3.9 17 -8.3 72 72 NE 8 13 30.56 1035 10 16.0934 0 0
4:56 pm 16:56 Sunny 23 -5 17 -8.3 78 78 NE 7 11 30.58 1036 10 16.0934 0 0
5:56 pm 17:56 Clear 22 -5.6 17 -8.3 82 82 NE 8 13 30.57 1035 10 16.0934 0 0
6:56 pm 18:56 Clear 20 -6.7 17 -8.3 89 89 ENE 6 9 30.56 1035 10 16.0934 0 0
7:56 pm 19:56 Clear 21 -6.1 17 -8.3 85 85 ENE 8 13 30.57 1035 10 16.0934 0 0
8:56 pm 20:56 Clear 21 -6.1 17 -8.3 85 85 ENE 9 15 30.55 1035 10 16.0934 0 0
9:56 pm 21:56 Clear 21 -6.1 17 -8.3 85 85 ENE 10 17 30.52 1033 10 16.0934 0 0
10:56 pm 22:56 Clear 22 -5.6 17 -8.3 82 82 ENE 13 20 30.5 1033 10 16.0934 0 0
11:56 pm 23:56 Clear 22 -5.6 17 -8.3 82 82 E 13 20 30.48 1032 10 16.0934 0 0

Powered by AerisWeather